owner,sensor,date,latitude,longitude,sea_water_turbidity,qcFlag 
SCCF RECON,ioos:station:SCCF:16:1,2011-11-01T00:00:00Z,26.4345,-81.9647,3.63,1111122 
SCCF RECON,ioos:station:SCCF:16:1,2011-11-01T01:00:00Z,26.4345,-81.9647,2.99,1111122 
SCCF RECON,ioos:station:SCCF:16:1,2011-11-01T02:00:00Z,26.4345,-81.9647,2.77,1111122 
SCCF RECON,ioos:station:SCCF:16:1,2011-11-01T03:00:00Z,26.4345,-81.9647,2.36,1111122 
SCCF RECON,ioos:station:SCCF:16:1,2011-11-01T04:00:00Z,26.4345,-81.9647,2.06,1111122 
SCCF RECON,ioos:station:SCCF:16:1,2011-11-01T05:00:00Z,26.4345,-81.9647,1.79,1111122 
SCCF RECON,ioos:station:SCCF:16:1,2011-11-01T06:00:00Z,26.4345,-81.9647,2.07,1111122 
SCCF RECON,ioos:station:SCCF:16:1,2011-11-01T07:00:00Z,26.4345,-81.9647,2.02,1111122 
SCCF RECON,ioos:station:SCCF:16:1,2011-11-01T08:00:00Z,26.4345,-81.9647,2.07,1111122 
SCCF RECON,ioos:station:SCCF:16:1,2011-11-01T09:00:00Z,26.4345,-81.9647,2.31,1111122 
SCCF RECON,ioos:station:SCCF:16:1,2011-11-01T10:00:00Z,26.4345,-81.9647,2.29,1111122 
SCCF RECON,ioos:station:SCCF:16:1,2011-11-01T11:00:00Z,26.4345,-81.9647,2.36,1111122 
SCCF RECON,ioos:station:SCCF:16:1,2011-11-01T12:00:00Z,26.4345,-81.9647,2.39,1111122 
SCCF RECON,ioos:station:SCCF:16:1,2011-11-01T13:00:00Z,26.4345,-81.9647,2.54,1111122 
SCCF RECON,ioos:station:SCCF:16:1,2011-11-01T14:00:00Z,26.4345,-81.9647,2.93,1111122 
SCCF RECON,ioos:station:SCCF:16:1,2011-11-01T15:00:00Z,26.4345,-81.9647,4.19,1111122 
SCCF RECON,ioos:station:SCCF:16:1,2011-11-01T16:00:00Z,26.4345,-81.9647,4.42,1111122 
SCCF RECON,ioos:station:SCCF:16:1,2011-11-01T17:00:00Z,26.4345,-81.9647,3.38,1111122 
SCCF RECON,ioos:station:SCCF:16:1,2011-11-01T18:00:00Z,26.4345,-81.9647,2.79,1111122 
SCCF RECON,ioos:station:SCCF:16:1,2011-11-01T19:00:00Z,26.4345,-81.9647,3.5,1111122 
SCCF RECON,ioos:station:SCCF:16:1,2011-11-01T20:00:00Z,26.4345,-81.9647,5.48,1111122 
SCCF RECON,ioos:station:SCCF:16:1,2011-11-01T21:00:00Z,26.4345,-81.9647,4.93,1111122 
SCCF RECON,ioos:station:SCCF:16:1,2011-11-01T22:00:00Z,26.4345,-81.9647,4.34,1111122 
SCCF RECON,ioos:station:SCCF:16:1,2011-11-01T23:00:00Z,26.4345,-81.9647,3.86,1111122 
SCCF RECON,ioos:station:SCCF:16:1,2011-11-02T00:00:00Z,26.4345,-81.9647,3.08,1111122 
SCCF RECON,ioos:station:SCCF:16:1,2011-11-02T01:00:00Z,26.4345,-81.9647,4.67,1111122 
SCCF RECON,ioos:station:SCCF:16:1,2011-11-02T02:00:00Z,26.4345,-81.9647,4.5,1111122 
SCCF RECON,ioos:station:SCCF:16:1,2011-11-02T03:00:00Z,26.4345,-81.9647,3.85,1111122 
SCCF RECON,ioos:station:SCCF:16:1,2011-11-02T04:00:00Z,26.4345,-81.9647,3.59,1111122 
SCCF RECON,ioos:station:SCCF:16:1,2011-11-02T05:00:00Z,26.4345,-81.9647,3.73,1111122 
SCCF RECON,ioos:station:SCCF:16:1,2011-11-02T06:00:00Z,26.4345,-81.9647,3.2,1111122 
SCCF RECON,ioos:station:SCCF:16:1,2011-11-02T07:00:00Z,26.4345,-81.9647,2.69,1111122 
SCCF RECON,ioos:station:SCCF:16:1,2011-11-02T08:00:00Z,26.4345,-81.9647,2.53,1111122 
SCCF RECON,ioos:station:SCCF:16:1,2011-11-02T09:00:00Z,26.4345,-81.9647,2.86,1111122 
SCCF RECON,ioos:station:SCCF:16:1,2011-11-02T10:00:00Z,26.4345,-81.9647,4.08,1111122 
SCCF RECON,ioos:station:SCCF:16:1,2011-11-02T11:00:00Z,26.4345,-81.9647,4.97,1111122 
SCCF RECON,ioos:station:SCCF:16:1,2011-11-02T12:00:00Z,26.4345,-81.9647,4.64,1111122 
SCCF RECON,ioos:station:SCCF:16:1,2011-11-02T13:00:00Z,26.4345,-81.9647,3.9,1111122 
SCCF RECON,ioos:station:SCCF:16:1,2011-11-02T14:00:00Z,26.4345,-81.9647,3.54,1111122 
SCCF RECON,ioos:station:SCCF:16:1,2011-11-02T15:00:00Z,26.4345,-81.9647,2.35,1111122 
SCCF RECON,ioos:station:SCCF:16:1,2011-11-02T16:00:00Z,26.4345,-81.9647,1.92,1111122 
SCCF RECON,ioos:station:SCCF:16:1,2011-11-02T17:00:00Z,26.4345,-81.9647,1.97,1111122 
SCCF RECON,ioos:station:SCCF:16:1,2011-11-02T18:00:00Z,26.4345,-81.9647,2.09,1111122 
SCCF RECON,ioos:station:SCCF:16:1,2011-11-02T19:00:00Z,26.4345,-81.9647,2.14,1111122 
SCCF RECON,ioos:station:SCCF:16:1,2011-11-02T20:00:00Z,26.4345,-81.9647,2.29,1111122 
SCCF RECON,ioos:station:SCCF:16:1,2011-11-02T21:00:00Z,26.4345,-81.9647,3.58,1111122 
SCCF RECON,ioos:station:SCCF:16:1,2011-11-02T22:00:00Z,26.4345,-81.9647,3.29,1111122 
SCCF RECON,ioos:station:SCCF:16:1,2011-11-02T23:00:00Z,26.4345,-81.9647,3.59,1111122 
SCCF RECON,ioos:station:SCCF:16:1,2011-11-03T00:00:00Z,26.4345,-81.9647,3.18,1111122 
SCCF RECON,ioos:station:SCCF:16:1,2011-11-03T01:00:00Z,26.4345,-81.9647,2.97,1111122 
SCCF RECON,ioos:station:SCCF:16:1,2011-11-03T02:00:00Z,26.4345,-81.9647,3.33,1111122 
SCCF RECON,ioos:station:SCCF:16:1,2011-11-03T03:00:00Z,26.4345,-81.9647,2.57,1111122 
SCCF RECON,ioos:station:SCCF:16:1,2011-11-03T04:00:00Z,26.4345,-81.9647,2.86,1111122 
SCCF RECON,ioos:station:SCCF:16:1,2011-11-03T05:00:00Z,26.4345,-81.9647,2.56,1111122 
SCCF RECON,ioos:station:SCCF:16:1,2011-11-03T06:00:00Z,26.4345,-81.9647,2.43,1111122 
SCCF RECON,ioos:station:SCCF:16:1,2011-11-03T07:00:00Z,26.4345,-81.9647,2.9,1111122 
SCCF RECON,ioos:station:SCCF:16:1,2011-11-03T08:00:00Z,26.4345,-81.9647,2.64,1111122 
SCCF RECON,ioos:station:SCCF:16:1,2011-11-03T09:00:00Z,26.4345,-81.9647,2.29,1111122 
SCCF RECON,ioos:station:SCCF:16:1,2011-11-03T10:00:00Z,26.4345,-81.9647,2.24,1111122 
SCCF RECON,ioos:station:SCCF:16:1,2011-11-03T11:00:00Z,26.4345,-81.9647,2.33,1111122 
SCCF RECON,ioos:station:SCCF:16:1,2011-11-03T12:00:00Z,26.4345,-81.9647,2.9,1111122 
SCCF RECON,ioos:station:SCCF:16:1,2011-11-03T13:00:00Z,26.4345,-81.9647,2.68,1111122 
SCCF RECON,ioos:station:SCCF:16:1,2011-11-03T14:00:00Z,26.4345,-81.9647,2.9,1111122 
SCCF RECON,ioos:station:SCCF:16:1,2011-11-03T15:00:00Z,26.4345,-81.9647,2.26,1111122 
SCCF RECON,ioos:station:SCCF:16:1,2011-11-03T16:00:00Z,26.4345,-81.9647,5.27,1111122 
SCCF RECON,ioos:station:SCCF:16:1,2011-11-03T17:00:00Z,26.4345,-81.9647,11.66,1111122 
SCCF RECON,ioos:station:SCCF:16:1,2011-11-03T18:00:00Z,26.4345,-81.9647,2.31,1111122 
SCCF RECON,ioos:station:SCCF:16:1,2011-11-03T19:00:00Z,26.4345,-81.9647,1.95,1111122 
SCCF RECON,ioos:station:SCCF:16:1,2011-11-03T20:00:00Z,26.4345,-81.9647,1.68,1111122 
SCCF RECON,ioos:station:SCCF:16:1,2011-11-03T21:00:00Z,26.4345,-81.9647,9.64,1111122 
SCCF RECON,ioos:station:SCCF:16:1,2011-11-03T22:00:00Z,26.4345,-81.9647,1.81,1111122 
SCCF RECON,ioos:station:SCCF:16:1,2011-11-03T23:00:00Z,26.4345,-81.9647,2.65,1111122 
SCCF RECON,ioos:station:SCCF:16:1,2011-11-04T00:00:00Z,26.4345,-81.9647,3.47,1111122 
SCCF RECON,ioos:station:SCCF:16:1,2011-11-04T01:00:00Z,26.4345,-81.9647,3.96,1111122 
SCCF RECON,ioos:station:SCCF:16:1,2011-11-04T02:00:00Z,26.4345,-81.9647,4.61,1111122 
SCCF RECON,ioos:station:SCCF:16:1,2011-11-04T03:00:00Z,26.4345,-81.9647,4.25,1111122 
SCCF RECON,ioos:station:SCCF:16:1,2011-11-04T04:00:00Z,26.4345,-81.9647,4.01,1111122 
SCCF RECON,ioos:station:SCCF:16:1,2011-11-04T05:00:00Z,26.4345,-81.9647,3.43,1111122 
SCCF RECON,ioos:station:SCCF:16:1,2011-11-04T06:00:00Z,26.4345,-81.9647,2.79,1111122 
SCCF RECON,ioos:station:SCCF:16:1,2011-11-04T07:00:00Z,26.4345,-81.9647,3.05,1111122 
SCCF RECON,ioos:station:SCCF:16:1,2011-11-04T08:00:00Z,26.4345,-81.9647,2.19,1111122 
SCCF RECON,ioos:station:SCCF:16:1,2011-11-04T09:00:00Z,26.4345,-81.9647,2.0,1111122 
SCCF RECON,ioos:station:SCCF:16:1,2011-11-04T10:00:00Z,26.4345,-81.9647,1.97,1111122 
SCCF RECON,ioos:station:SCCF:16:1,2011-11-04T11:00:00Z,26.4345,-81.9647,2.81,1111122 
SCCF RECON,ioos:station:SCCF:16:1,2011-11-04T12:00:00Z,26.4345,-81.9647,4.46,1111122 
SCCF RECON,ioos:station:SCCF:16:1,2011-11-04T13:00:00Z,26.4345,-81.9647,4.66,1111122 
SCCF RECON,ioos:station:SCCF:16:1,2011-11-04T14:00:00Z,26.4345,-81.9647,3.9,1111122 
SCCF RECON,ioos:station:SCCF:16:1,2011-11-04T15:00:00Z,26.4345,-81.9647,3.33,1111122 
SCCF RECON,ioos:station:SCCF:16:1,2011-11-04T16:00:00Z,26.4345,-81.9647,4.38,1111122 
SCCF RECON,ioos:station:SCCF:16:1,2011-11-04T17:00:00Z,26.4345,-81.9647,3.17,1111122 
SCCF RECON,ioos:station:SCCF:16:1,2011-11-04T18:00:00Z,26.4345,-81.9647,6.36,1111122 
SCCF RECON,ioos:station:SCCF:16:1,2011-11-04T19:00:00Z,26.4345,-81.9647,9.62,1111122 
SCCF RECON,ioos:station:SCCF:16:1,2011-11-04T20:00:00Z,26.4345,-81.9647,6.79,1111122 
SCCF RECON,ioos:station:SCCF:16:1,2011-11-04T21:00:00Z,26.4345,-81.9647,6.09,1111122 
SCCF RECON,ioos:station:SCCF:16:1,2011-11-04T22:00:00Z,26.4345,-81.9647,6.28,1111122 
SCCF RECON,ioos:station:SCCF:16:1,2011-11-04T23:00:00Z,26.4345,-81.9647,4.08,1111122 
SCCF RECON,ioos:station:SCCF:16:1,2011-11-05T00:00:00Z,26.4345,-81.9647,3.8,1111122 
SCCF RECON,ioos:station:SCCF:16:1,2011-11-05T01:00:00Z,26.4345,-81.9647,4.3,1111122 
SCCF RECON,ioos:station:SCCF:16:1,2011-11-05T02:00:00Z,26.4345,-81.9647,4.87,1111122 
SCCF RECON,ioos:station:SCCF:16:1,2011-11-05T03:00:00Z,26.4345,-81.9647,8.99,1111122 
SCCF RECON,ioos:station:SCCF:16:1,2011-11-05T04:00:00Z,26.4345,-81.9647,5.3,1111122 
SCCF RECON,ioos:station:SCCF:16:1,2011-11-05T05:00:00Z,26.4345,-81.9647,5.66,1111122 
SCCF RECON,ioos:station:SCCF:16:1,2011-11-05T06:00:00Z,26.4345,-81.9647,2.41,1111122 
SCCF RECON,ioos:station:SCCF:16:1,2011-11-05T07:00:00Z,26.4345,-81.9647,3.27,1111122 
SCCF RECON,ioos:station:SCCF:16:1,2011-11-05T08:00:00Z,26.4345,-81.9647,4.15,1111122 
SCCF RECON,ioos:station:SCCF:16:1,2011-11-05T09:00:00Z,26.4345,-81.9647,3.41,1111122 
SCCF RECON,ioos:station:SCCF:16:1,2011-11-05T10:00:00Z,26.4345,-81.9647,4.81,1111122 
SCCF RECON,ioos:station:SCCF:16:1,2011-11-05T11:00:00Z,26.4345,-81.9647,4.4,1111122 
SCCF RECON,ioos:station:SCCF:16:1,2011-11-05T12:00:00Z,26.4345,-81.9647,7.89,1111122 
SCCF RECON,ioos:station:SCCF:16:1,2011-11-05T13:00:00Z,26.4345,-81.9647,8.41,1111122 
SCCF RECON,ioos:station:SCCF:16:1,2011-11-05T14:00:00Z,26.4345,-81.9647,8.65,1111122 
SCCF RECON,ioos:station:SCCF:16:1,2011-11-05T15:00:00Z,26.4345,-81.9647,7.95,1111122 
SCCF RECON,ioos:station:SCCF:16:1,2011-11-05T16:00:00Z,26.4345,-81.9647,7.71,1111122 
SCCF RECON,ioos:station:SCCF:16:1,2011-11-05T17:00:00Z,26.4345,-81.9647,13.9,1111122 
SCCF RECON,ioos:station:SCCF:16:1,2011-11-05T18:00:00Z,26.4345,-81.9647,7.25,1111122 
SCCF RECON,ioos:station:SCCF:16:1,2011-11-05T19:00:00Z,26.4345,-81.9647,8.12,1111122 
SCCF RECON,ioos:station:SCCF:16:1,2011-11-05T20:00:00Z,26.4345,-81.9647,5.61,1111122 
SCCF RECON,ioos:station:SCCF:16:1,2011-11-05T21:00:00Z,26.4345,-81.9647,5.37,1111122 
SCCF RECON,ioos:station:SCCF:16:1,2011-11-05T22:00:00Z,26.4345,-81.9647,9.09,1111122 
SCCF RECON,ioos:station:SCCF:16:1,2011-11-05T23:00:00Z,26.4345,-81.9647,5.16,1111122 
SCCF RECON,ioos:station:SCCF:16:1,2011-11-06T00:00:00Z,26.4345,-81.9647,6.59,1111122 
SCCF RECON,ioos:station:SCCF:16:1,2011-11-06T01:00:00Z,26.4345,-81.9647,8.29,1111122 
SCCF RECON,ioos:station:SCCF:16:1,2011-11-06T02:00:00Z,26.4345,-81.9647,10.8,1111122 
SCCF RECON,ioos:station:SCCF:16:1,2011-11-06T03:00:00Z,26.4345,-81.9647,8.62,1111122 
SCCF RECON,ioos:station:SCCF:16:1,2011-11-06T04:00:00Z,26.4345,-81.9647,8.5,1111122 
SCCF RECON,ioos:station:SCCF:16:1,2011-11-06T05:00:00Z,26.4345,-81.9647,8.0,1111122 
SCCF RECON,ioos:station:SCCF:16:1,2011-11-06T06:00:00Z,26.4345,-81.9647,10.54,1111122 
SCCF RECON,ioos:station:SCCF:16:1,2011-11-06T07:00:00Z,26.4345,-81.9647,13.87,1111122 
SCCF RECON,ioos:station:SCCF:16:1,2011-11-06T08:00:00Z,26.4345,-81.9647,6.81,1111122 
SCCF RECON,ioos:station:SCCF:16:1,2011-11-06T09:00:00Z,26.4345,-81.9647,4.04,1111122 
SCCF RECON,ioos:station:SCCF:16:1,2011-11-06T10:00:00Z,26.4345,-81.9647,12.69,1111122 
SCCF RECON,ioos:station:SCCF:16:1,2011-11-06T11:00:00Z,26.4345,-81.9647,4.08,1111122 
SCCF RECON,ioos:station:SCCF:16:1,2011-11-06T12:00:00Z,26.4345,-81.9647,14.14,1111122 
SCCF RECON,ioos:station:SCCF:16:1,2011-11-06T13:00:00Z,26.4345,-81.9647,9.58,1111122 
SCCF RECON,ioos:station:SCCF:16:1,2011-11-06T14:00:00Z,26.4345,-81.9647,8.68,1111122 
SCCF RECON,ioos:station:SCCF:16:1,2011-11-06T15:00:00Z,26.4345,-81.9647,7.47,1111122 
SCCF RECON,ioos:station:SCCF:16:1,2011-11-06T16:00:00Z,26.4345,-81.9647,7.11,1111122 
SCCF RECON,ioos:station:SCCF:16:1,2011-11-06T17:00:00Z,26.4345,-81.9647,5.63,1111122 
SCCF RECON,ioos:station:SCCF:16:1,2011-11-06T18:00:00Z,26.4345,-81.9647,4.67,1111122 
SCCF RECON,ioos:station:SCCF:16:1,2011-11-06T19:00:00Z,26.4345,-81.9647,4.64,1111122 
SCCF RECON,ioos:station:SCCF:16:1,2011-11-06T20:00:00Z,26.4345,-81.9647,4.04,1111122 
SCCF RECON,ioos:station:SCCF:16:1,2011-11-06T21:00:00Z,26.4345,-81.9647,3.83,1111122 
SCCF RECON,ioos:station:SCCF:16:1,2011-11-06T22:00:00Z,26.4345,-81.9647,3.7,1111122 
SCCF RECON,ioos:station:SCCF:16:1,2011-11-06T23:00:00Z,26.4345,-81.9647,3.82,1111122 
SCCF RECON,ioos:station:SCCF:16:1,2011-11-07T00:00:00Z,26.4345,-81.9647,4.52,1111122 
SCCF RECON,ioos:station:SCCF:16:1,2011-11-07T01:00:00Z,26.4345,-81.9647,5.19,1111122 
SCCF RECON,ioos:station:SCCF:16:1,2011-11-07T02:00:00Z,26.4345,-81.9647,5.88,1111122 
SCCF RECON,ioos:station:SCCF:16:1,2011-11-07T03:00:00Z,26.4345,-81.9647,6.33,1111122 
SCCF RECON,ioos:station:SCCF:16:1,2011-11-07T04:00:00Z,26.4345,-81.9647,6.36,1111122 
SCCF RECON,ioos:station:SCCF:16:1,2011-11-07T05:00:00Z,26.4345,-81.9647,6.3,1111122 
SCCF RECON,ioos:station:SCCF:16:1,2011-11-07T06:00:00Z,26.4345,-81.9647,5.77,1111122 
SCCF RECON,ioos:station:SCCF:16:1,2011-11-07T07:00:00Z,26.4345,-81.9647,5.56,1111122 
SCCF RECON,ioos:station:SCCF:16:1,2011-11-07T08:00:00Z,26.4345,-81.9647,9.18,1111122 
SCCF RECON,ioos:station:SCCF:16:1,2011-11-07T09:00:00Z,26.4345,-81.9647,5.3,1111122 
SCCF RECON,ioos:station:SCCF:16:1,2011-11-07T10:00:00Z,26.4345,-81.9647,6.7,1111122 
SCCF RECON,ioos:station:SCCF:16:1,2011-11-07T11:00:00Z,26.4345,-81.9647,5.71,1111122 
SCCF RECON,ioos:station:SCCF:16:1,2011-11-07T12:00:00Z,26.4345,-81.9647,3.69,1111122 
SCCF RECON,ioos:station:SCCF:16:1,2011-11-07T13:00:00Z,26.4345,-81.9647,10.05,1111122 
SCCF RECON,ioos:station:SCCF:16:1,2011-11-07T14:00:00Z,26.4345,-81.9647,6.31,1111122 
SCCF RECON,ioos:station:SCCF:16:1,2011-11-07T15:00:00Z,26.4345,-81.9647,6.0,1111122 
SCCF RECON,ioos:station:SCCF:16:1,2011-11-07T16:00:00Z,26.4345,-81.9647,5.76,1111122 
SCCF RECON,ioos:station:SCCF:16:1,2011-11-07T17:00:00Z,26.4345,-81.9647,4.57,1111122 
SCCF RECON,ioos:station:SCCF:16:1,2011-11-07T18:00:00Z,26.4345,-81.9647,4.34,1111122 
SCCF RECON,ioos:station:SCCF:16:1,2011-11-07T19:00:00Z,26.4345,-81.9647,3.99,1111122 
SCCF RECON,ioos:station:SCCF:16:1,2011-11-07T20:00:00Z,26.4345,-81.9647,4.06,1111122 
SCCF RECON,ioos:station:SCCF:16:1,2011-11-07T21:00:00Z,26.4345,-81.9647,3.44,1111122 
SCCF RECON,ioos:station:SCCF:16:1,2011-11-07T22:00:00Z,26.4345,-81.9647,3.34,1111122 
SCCF RECON,ioos:station:SCCF:16:1,2011-11-07T23:00:00Z,26.4345,-81.9647,4.16,1111122 
SCCF RECON,ioos:station:SCCF:16:1,2011-11-08T00:00:00Z,26.4345,-81.9647,4.0,1111122 
SCCF RECON,ioos:station:SCCF:16:1,2011-11-08T01:00:00Z,26.4345,-81.9647,4.61,1111122 
SCCF RECON,ioos:station:SCCF:16:1,2011-11-08T02:00:00Z,26.4345,-81.9647,3.1,1111122 
SCCF RECON,ioos:station:SCCF:16:1,2011-11-08T03:00:00Z,26.4345,-81.9647,2.94,1111122 
SCCF RECON,ioos:station:SCCF:16:1,2011-11-08T04:00:00Z,26.4345,-81.9647,2.97,1111122 
SCCF RECON,ioos:station:SCCF:16:1,2011-11-08T05:00:00Z,26.4345,-81.9647,2.99,1111122 
SCCF RECON,ioos:station:SCCF:16:1,2011-11-08T06:00:00Z,26.4345,-81.9647,3.02,1111122 
SCCF RECON,ioos:station:SCCF:16:1,2011-11-08T07:00:00Z,26.4345,-81.9647,4.53,1111122 
SCCF RECON,ioos:station:SCCF:16:1,2011-11-08T08:00:00Z,26.4345,-81.9647,5.66,1111122 
SCCF RECON,ioos:station:SCCF:16:1,2011-11-08T09:00:00Z,26.4345,-81.9647,9.66,1111122 
SCCF RECON,ioos:station:SCCF:16:1,2011-11-08T10:00:00Z,26.4345,-81.9647,6.77,1111122 
SCCF RECON,ioos:station:SCCF:16:1,2011-11-08T11:00:00Z,26.4345,-81.9647,5.86,1111122 
SCCF RECON,ioos:station:SCCF:16:1,2011-11-08T12:00:00Z,26.4345,-81.9647,5.53,1111122 
SCCF RECON,ioos:station:SCCF:16:1,2011-11-08T13:00:00Z,26.4345,-81.9647,4.6,1111122 
SCCF RECON,ioos:station:SCCF:16:1,2011-11-08T14:00:00Z,26.4345,-81.9647,5.5,1111122 
SCCF RECON,ioos:station:SCCF:16:1,2011-11-08T15:00:00Z,26.4345,-81.9647,5.31,1111122 
SCCF RECON,ioos:station:SCCF:16:1,2011-11-08T16:00:00Z,26.4345,-81.9647,6.24,1111122 
SCCF RECON,ioos:station:SCCF:16:1,2011-11-08T17:00:00Z,26.4345,-81.9647,5.93,1111122 
SCCF RECON,ioos:station:SCCF:16:1,2011-11-08T18:00:00Z,26.4345,-81.9647,5.02,1111122 
SCCF RECON,ioos:station:SCCF:16:1,2011-11-08T19:00:00Z,26.4345,-81.9647,4.68,1111122 
SCCF RECON,ioos:station:SCCF:16:1,2011-11-08T20:00:00Z,26.4345,-81.9647,4.05,1111122 
SCCF RECON,ioos:station:SCCF:16:1,2011-11-08T21:00:00Z,26.4345,-81.9647,2.71,1111122 
SCCF RECON,ioos:station:SCCF:16:1,2011-11-08T22:00:00Z,26.4345,-81.9647,6.95,1111122 
SCCF RECON,ioos:station:SCCF:16:1,2011-11-08T23:00:00Z,26.4345,-81.9647,3.61,1111122 
SCCF RECON,ioos:station:SCCF:16:1,2011-11-09T00:00:00Z,26.4345,-81.9647,2.95,1111122 
SCCF RECON,ioos:station:SCCF:16:1,2011-11-09T01:00:00Z,26.4345,-81.9647,2.8,1111122 
SCCF RECON,ioos:station:SCCF:16:1,2011-11-09T02:00:00Z,26.4345,-81.9647,2.77,1111122 
SCCF RECON,ioos:station:SCCF:16:1,2011-11-09T03:00:00Z,26.4345,-81.9647,2.19,1111122 
SCCF RECON,ioos:station:SCCF:16:1,2011-11-09T04:00:00Z,26.4345,-81.9647,5.64,1111122 
SCCF RECON,ioos:station:SCCF:16:1,2011-11-09T05:00:00Z,26.4345,-81.9647,3.11,1111122 
SCCF RECON,ioos:station:SCCF:16:1,2011-11-09T06:00:00Z,26.4345,-81.9647,3.33,1111122 
SCCF RECON,ioos:station:SCCF:16:1,2011-11-09T07:00:00Z,26.4345,-81.9647,4.92,1111122 
SCCF RECON,ioos:station:SCCF:16:1,2011-11-09T08:00:00Z,26.4345,-81.9647,7.57,1111122 
SCCF RECON,ioos:station:SCCF:16:1,2011-11-09T09:00:00Z,26.4345,-81.9647,8.9,1111122 
SCCF RECON,ioos:station:SCCF:16:1,2011-11-09T10:00:00Z,26.4345,-81.9647,8.87,1111122 
SCCF RECON,ioos:station:SCCF:16:1,2011-11-09T11:00:00Z,26.4345,-81.9647,8.04,1111122 
SCCF RECON,ioos:station:SCCF:16:1,2011-11-09T12:00:00Z,26.4345,-81.9647,6.53,1111122 
SCCF RECON,ioos:station:SCCF:16:1,2011-11-09T13:00:00Z,26.4345,-81.9647,6.78,1111122 
SCCF RECON,ioos:station:SCCF:16:1,2011-11-09T14:00:00Z,26.4345,-81.9647,5.15,1111122 
SCCF RECON,ioos:station:SCCF:16:1,2011-11-09T15:00:00Z,26.4345,-81.9647,5.5,1111122 
SCCF RECON,ioos:station:SCCF:16:1,2011-11-09T16:00:00Z,26.4345,-81.9647,6.38,1111122 
SCCF RECON,ioos:station:SCCF:16:1,2011-11-09T17:00:00Z,26.4345,-81.9647,6.32,1111122 
SCCF RECON,ioos:station:SCCF:16:1,2011-11-09T18:00:00Z,26.4345,-81.9647,5.78,1111122 
SCCF RECON,ioos:station:SCCF:16:1,2011-11-09T19:00:00Z,26.4345,-81.9647,5.5,1111122 
SCCF RECON,ioos:station:SCCF:16:1,2011-11-09T20:00:00Z,26.4345,-81.9647,4.85,1111122 
SCCF RECON,ioos:station:SCCF:16:1,2011-11-09T21:00:00Z,26.4345,-81.9647,3.85,1111122 
SCCF RECON,ioos:station:SCCF:16:1,2011-11-09T22:00:00Z,26.4345,-81.9647,3.95,1111122 
SCCF RECON,ioos:station:SCCF:16:1,2011-11-09T23:00:00Z,26.4345,-81.9647,3.76,1111122 
SCCF RECON,ioos:station:SCCF:16:1,2011-11-10T00:00:00Z,26.4345,-81.9647,3.55,1111122 
SCCF RECON,ioos:station:SCCF:16:1,2011-11-10T01:00:00Z,26.4345,-81.9647,3.59,1111122 
SCCF RECON,ioos:station:SCCF:16:1,2011-11-10T02:00:00Z,26.4345,-81.9647,3.56,1111122 
SCCF RECON,ioos:station:SCCF:16:1,2011-11-10T03:00:00Z,26.4345,-81.9647,5.94,1111122 
SCCF RECON,ioos:station:SCCF:16:1,2011-11-10T04:00:00Z,26.4345,-81.9647,7.44,1111122 
SCCF RECON,ioos:station:SCCF:16:1,2011-11-10T05:00:00Z,26.4345,-81.9647,6.38,1111122 
SCCF RECON,ioos:station:SCCF:16:1,2011-11-10T06:00:00Z,26.4345,-81.9647,6.42,1111122 
SCCF RECON,ioos:station:SCCF:16:1,2011-11-10T07:00:00Z,26.4345,-81.9647,6.42,1111122 
SCCF RECON,ioos:station:SCCF:16:1,2011-11-10T08:00:00Z,26.4345,-81.9647,4.88,1111122 
SCCF RECON,ioos:station:SCCF:16:1,2011-11-10T09:00:00Z,26.4345,-81.9647,9.58,1111122 
SCCF RECON,ioos:station:SCCF:16:1,2011-11-10T10:00:00Z,26.4345,-81.9647,11.74,1111122 
SCCF RECON,ioos:station:SCCF:16:1,2011-11-10T11:00:00Z,26.4345,-81.9647,9.92,1111122 
SCCF RECON,ioos:station:SCCF:16:1,2011-11-10T12:00:00Z,26.4345,-81.9647,10.59,1111122 
SCCF RECON,ioos:station:SCCF:16:1,2011-11-10T13:00:00Z,26.4345,-81.9647,9.22,1111122 
SCCF RECON,ioos:station:SCCF:16:1,2011-11-10T14:00:00Z,26.4345,-81.9647,10.12,1111122 
SCCF RECON,ioos:station:SCCF:16:1,2011-11-10T15:00:00Z,26.4345,-81.9647,8.54,1111122 
SCCF RECON,ioos:station:SCCF:16:1,2011-11-10T16:00:00Z,26.4345,-81.9647,6.3,1111122 
SCCF RECON,ioos:station:SCCF:16:1,2011-11-10T17:00:00Z,26.4345,-81.9647,6.43,1111122 
SCCF RECON,ioos:station:SCCF:16:1,2011-11-10T18:00:00Z,26.4345,-81.9647,6.06,1111122 
SCCF RECON,ioos:station:SCCF:16:1,2011-11-10T19:00:00Z,26.4345,-81.9647,7.66,1111122 
SCCF RECON,ioos:station:SCCF:16:1,2011-11-10T20:00:00Z,26.4345,-81.9647,6.0,1111122 
SCCF RECON,ioos:station:SCCF:16:1,2011-11-10T21:00:00Z,26.4345,-81.9647,5.11,1111122 
SCCF RECON,ioos:station:SCCF:16:1,2011-11-10T22:00:00Z,26.4345,-81.9647,4.93,1111122 
SCCF RECON,ioos:station:SCCF:16:1,2011-11-10T23:00:00Z,26.4345,-81.9647,4.53,1111122 
SCCF RECON,ioos:station:SCCF:16:1,2011-11-11T00:00:00Z,26.4345,-81.9647,3.72,1111122 
SCCF RECON,ioos:station:SCCF:16:1,2011-11-11T01:00:00Z,26.4345,-81.9647,4.13,1111122 
SCCF RECON,ioos:station:SCCF:16:1,2011-11-11T02:00:00Z,26.4345,-81.9647,4.27,1111122 
SCCF RECON,ioos:station:SCCF:16:1,2011-11-11T03:00:00Z,26.4345,-81.9647,7.09,1111122 
SCCF RECON,ioos:station:SCCF:16:1,2011-11-11T04:00:00Z,26.4345,-81.9647,5.89,1111122 
SCCF RECON,ioos:station:SCCF:16:1,2011-11-11T05:00:00Z,26.4345,-81.9647,11.32,1111122 
SCCF RECON,ioos:station:SCCF:16:1,2011-11-11T06:00:00Z,26.4345,-81.9647,4.35,1111122 
SCCF RECON,ioos:station:SCCF:16:1,2011-11-11T07:00:00Z,26.4345,-81.9647,6.35,1111122 
SCCF RECON,ioos:station:SCCF:16:1,2011-11-11T08:00:00Z,26.4345,-81.9647,6.28,1111122 
SCCF RECON,ioos:station:SCCF:16:1,2011-11-11T09:00:00Z,26.4345,-81.9647,17.27,1111122 
SCCF RECON,ioos:station:SCCF:16:1,2011-11-11T10:00:00Z,26.4345,-81.9647,23.34,1111122 
SCCF RECON,ioos:station:SCCF:16:1,2011-11-11T11:00:00Z,26.4345,-81.9647,25.6,1111122 
SCCF RECON,ioos:station:SCCF:16:1,2011-11-11T12:00:00Z,26.4345,-81.9647,29.88,1111122 
SCCF RECON,ioos:station:SCCF:16:1,2011-11-11T13:00:00Z,26.4345,-81.9647,19.23,1111122 
SCCF RECON,ioos:station:SCCF:16:1,2011-11-11T14:00:00Z,26.4345,-81.9647,10.62,1111122 
SCCF RECON,ioos:station:SCCF:16:1,2011-11-11T15:00:00Z,26.4345,-81.9647,10.48,1111122 
SCCF RECON,ioos:station:SCCF:16:1,2011-11-11T16:00:00Z,26.4345,-81.9647,13.55,1111122 
SCCF RECON,ioos:station:SCCF:16:1,2011-11-11T17:00:00Z,26.4345,-81.9647,12.16,1111122 
SCCF RECON,ioos:station:SCCF:16:1,2011-11-11T18:00:00Z,26.4345,-81.9647,25.94,1111122 
SCCF RECON,ioos:station:SCCF:16:1,2011-11-11T19:00:00Z,26.4345,-81.9647,21.06,1111122 
SCCF RECON,ioos:station:SCCF:16:1,2011-11-11T20:00:00Z,26.4345,-81.9647,14.79,1111122 
SCCF RECON,ioos:station:SCCF:16:1,2011-11-11T21:00:00Z,26.4345,-81.9647,16.47,1111122 
SCCF RECON,ioos:station:SCCF:16:1,2011-11-11T22:00:00Z,26.4345,-81.9647,10.37,1111122 
SCCF RECON,ioos:station:SCCF:16:1,2011-11-11T23:00:00Z,26.4345,-81.9647,10.92,1111122 
SCCF RECON,ioos:station:SCCF:16:1,2011-11-12T00:00:00Z,26.4345,-81.9647,9.2,1111122 
SCCF RECON,ioos:station:SCCF:16:1,2011-11-12T01:00:00Z,26.4345,-81.9647,8.15,1111122 
SCCF RECON,ioos:station:SCCF:16:1,2011-11-12T02:00:00Z,26.4345,-81.9647,8.15,1111122 
SCCF RECON,ioos:station:SCCF:16:1,2011-11-12T03:00:00Z,26.4345,-81.9647,8.01,1111122 
SCCF RECON,ioos:station:SCCF:16:1,2011-11-12T04:00:00Z,26.4345,-81.9647,8.47,1111122 
SCCF RECON,ioos:station:SCCF:16:1,2011-11-12T05:00:00Z,26.4345,-81.9647,6.11,1111122 
SCCF RECON,ioos:station:SCCF:16:1,2011-11-12T06:00:00Z,26.4345,-81.9647,6.77,1111122 
SCCF RECON,ioos:station:SCCF:16:1,2011-11-12T07:00:00Z,26.4345,-81.9647,6.22,1111122 
SCCF RECON,ioos:station:SCCF:16:1,2011-11-12T08:00:00Z,26.4345,-81.9647,12.58,1111122 
SCCF RECON,ioos:station:SCCF:16:1,2011-11-12T09:00:00Z,26.4345,-81.9647,24.39,1111122 
SCCF RECON,ioos:station:SCCF:16:1,2011-11-12T10:00:00Z,26.4345,-81.9647,16.51,1111122 
SCCF RECON,ioos:station:SCCF:16:1,2011-11-12T11:00:00Z,26.4345,-81.9647,14.76,1111122 
SCCF RECON,ioos:station:SCCF:16:1,2011-11-12T12:00:00Z,26.4345,-81.9647,24.26,1111122 
SCCF RECON,ioos:station:SCCF:16:1,2011-11-12T13:00:00Z,26.4345,-81.9647,22.1,1111122 